Weather History for Twin Falls, ID

Change the Weather History Date:

Wednesday, February 6, 2013

  Actual Average Record
Temperature  
Mean Temperature 36 °F -  
Max Temperature 44 °F 40 °F 56 °F (2007)
Min Temperature 28 °F 22 °F -10 °F (1989)
Degree Days  
Heating Degree Days 29 34  
Month to date heating degree days 167 206  
Since 1 July heating degree days 3586 3874  
Cooling Degree Days 0 0  
Month to date cooling degree days 0 0  
Year to date cooling degree days 0 0  
Moisture  
Dew Point 26 °F    
Average Humidity 69    
Maximum Humidity 92    
Minimum Humidity 45    
Precipitation  
Precipitation 0.00 in 0.03 in 0.20 in (2004)
Month to date precipitation 0.00 0.18  
Year to date precipitation 0.14 1.16  
Sea Level Pressure  
Sea Level Pressure 30.05 in    
Wind  
Wind Speed 11 mph (SW)    
Max Wind Speed 20 mph    
Max Gust Speed 24 mph    
Visibility 8 miles    
Events Fog    
T = Trace of Precipitation, MM = Missing Value Source: NWS Daily Summary

Daily Weather History Graph

Daily Weather History Graph

Search for Another Location

Airport:

Trip Planner

Search our weather history database for the weather conditions in past years. The results will help you decide how hot, cold, wet, or windy it might be!

Date:

Astronomy

Feb. 06, 2013 Rise Set
Actual Time 7:45 AM MST 5:58 PM MST
Civil Twilight 7:16 AM MST 6:28 PM MST
Nautical Twilight 6:43 AM MST 7:01 PM MST
Astronomical Twilight 6:10 AM MST 7:34 PM MST
Moon 4:36 AM MST (2/6) 2:19 PM MST (2/6)
Length of Visible Light 11h 11m
Length of Day
10h 13m
Waning Crescent, 16% of the Moon is Illuminated
Feb 6
Waning Crescent
Feb 10
New
Feb 17
First Quarter
Feb 25
Full
Mar 4
Last Quarter

Hourly Weather History & Observations

Time (MST) Temp. Windchill Dew Point Humidity Pressure Visibility Wind Dir Wind Speed Gust Speed Precip Events Conditions
12:53 AM 34.0 °F 26.0 °F 26.1 °F 73% 29.92 in 10.0 mi West 10.4 mph - N/A   Clear
1:11 AM 33.8 °F 23.9 °F 28.4 °F 81% 29.97 in 8.0 mi WNW 15.0 mph - N/A   Scattered Clouds
1:17 AM 33.8 °F 23.9 °F 28.4 °F 81% 29.97 in 2.5 mi West 15.0 mph - N/A   Mostly Cloudy
1:20 AM 33.8 °F 22.8 °F 28.4 °F 81% 29.97 in 0.8 mi West 18.4 mph - N/A   Mist
1:23 AM 33.8 °F 23.2 °F 28.4 °F 81% 29.97 in 0.2 mi West 17.3 mph - N/A Fog Fog
1:53 AM 30.9 °F 21.7 °F 28.0 °F 89% 29.94 in 0.2 mi West 11.5 mph - N/A Fog Light Freezing Fog
2:25 AM 30.2 °F 20.2 °F 26.6 °F 86% 29.99 in 1.0 mi South 12.7 mph - N/A   Mist
2:33 AM 30.2 °F 21.3 °F 28.4 °F 93% 29.99 in 3.0 mi SSW 10.4 mph - N/A   Mostly Cloudy
2:46 AM 32.0 °F 22.5 °F 28.4 °F 87% 29.99 in 10.0 mi SSW 12.7 mph - N/A   Scattered Clouds
2:53 AM 32.0 °F 23.0 °F 28.0 °F 85% 29.96 in 10.0 mi South 11.5 mph - N/A   Partly Cloudy
3:53 AM 34.0 °F 25.0 °F 28.0 °F 79% 29.96 in 10.0 mi SW 12.7 mph - N/A   Mostly Cloudy
4:53 AM 35.1 °F 25.9 °F 28.9 °F 78% 29.98 in 10.0 mi SW 13.8 mph - N/A   Scattered Clouds
5:53 AM 35.1 °F 26.4 °F 27.0 °F 72% 29.99 in 10.0 mi SW 12.7 mph - N/A   Clear
6:53 AM 33.1 °F 23.9 °F 26.1 °F 75% 30.01 in 10.0 mi South 12.7 mph - N/A   Clear
7:53 AM 33.1 °F 24.4 °F 25.0 °F 72% 30.05 in 10.0 mi SSW 11.5 mph - N/A   Clear
8:53 AM 35.1 °F 27.4 °F 26.1 °F 70% 30.08 in 10.0 mi SW 10.4 mph - N/A   Clear
9:53 AM 37.9 °F 29.6 °F 25.0 °F 60% 30.10 in 10.0 mi WSW 13.8 mph - N/A   Clear
10:53 AM 39.9 °F 30.8 °F 25.0 °F 55% 30.11 in 10.0 mi WSW 18.4 mph 23.0 mph N/A   Clear
11:53 AM 41.0 °F 32.5 °F 25.0 °F 53% 30.12 in 10.0 mi West 17.3 mph - N/A   Clear
12:53 PM 43.0 °F 36.0 °F 25.0 °F 49% 30.10 in 10.0 mi West 13.8 mph - N/A   Clear
1:53 PM 42.1 °F 34.9 °F 24.1 °F 49% 30.10 in 10.0 mi WNW 13.8 mph - N/A   Partly Cloudy
2:53 PM 44.1 °F 38.6 °F 25.0 °F 47% 30.09 in 10.0 mi West 10.4 mph - N/A   Scattered Clouds
3:53 PM 43.0 °F 36.4 °F 24.1 °F 47% 30.10 in 10.0 mi West 12.7 mph - N/A   Clear
4:53 PM 42.1 °F 36.6 °F 24.1 °F 49% 30.10 in 10.0 mi West 9.2 mph - N/A   Clear
5:53 PM 37.9 °F 35.5 °F 24.1 °F 57% 30.12 in 10.0 mi West 3.5 mph - N/A   Clear
6:53 PM 28.9 °F - 23.0 °F 78% 30.16 in 10.0 mi Calm Calm - N/A   Clear
7:53 PM 28.9 °F 25.2 °F 23.0 °F 78% 30.16 in 10.0 mi SE 3.5 mph - N/A   Clear
8:53 PM 30.0 °F 22.4 °F 23.0 °F 75% 30.14 in 10.0 mi SE 8.1 mph - N/A   Clear
9:53 PM 28.9 °F 21.1 °F 21.9 °F 75% 30.14 in 10.0 mi SE 8.1 mph - N/A   Clear
10:53 PM 32.0 °F 23.6 °F 23.0 °F 69% 30.12 in 10.0 mi SSE 10.4 mph - N/A   Clear
11:53 PM 30.9 °F 24.3 °F 21.0 °F 67% 30.12 in 10.0 mi SE 6.9 mph - N/A   Clear